DMC3-FM2

Last updated on Tue Dec 03 2024 00:02:32 GMT+0000 (Coordinated Universal Time)

1 40716U 15032B 24337.54849748 .00002350 00000+0 28515-3 0 9990 2 40716 97.7285 212.5346 0008988 102.4013 257.8208 14.84458835506547
UTC large
Height (km)
Speed (km/s)
/
Latitude / Longitude
Inclination (degrees)
Orbital Period (minutes)
Azimuth
Elevation
Range (km)
Doppler Factor

Next 0 passes for location: London (51.5072 / 0.1276)

Sorry there are no passes over London.